Lid_Strength_Index
4 4 4 4 4 3 3 2 2 2 2 3 3 3 3 2 2 2 2 2 3 4 4 5 6 4 4 4 5 6 6 5 7 6 5 4 4 5 5 5 5 5 5
4 4 4 4 3 3 2 1 1 2 2 2 3 3 3 2 2 2 2 3 3 3 3 4 5 5 4 5 6 6 6 6 6 8 6 6 6 5 6 6 6 6 5
4 4 4 4 3 2 1 1 1 2 2 2 2 3 3 2 2 2 2 3 3 3 3 4 5 5 5 6 6 6 6 6 6 8 9 7 7 7 6 5 6 6 6
4 4 3 2 2 1 1 2 1 1 2 2 2 3 2 2 2 2 3 3 3 3 3 4 5 5 5 5 5 5 5 6 7 8 8 8 7 6 6 7 7 6 7
4 3 3 2 1 1 2 2 1 2 3 2 3 3 2 2 3 3 3 3 3 4 4 5 4 4 5 5 6 6 6 6 7 8 9 8 8 8 8 8 8 7 7
4 4 3 2 2 2 2 2 2 2 3 3 3 3 2 3 5 6 4 4 4 5 5 4 4 5 6 6 6 6 6 6 7 7 7 8 8 8 7 8 8 8 10
5 5 5 2 2 2 2 3 3 3 3 3 2 2 2 2 6 6 6 4 4 4 5 5 6 6 6 7 6 6 6 6 6 7 8 8 7 6 6 7 8 8 9
5 5 5 2 3 3 3 3 2 3 3 3 2 2 3 2 6 7 6 4 3 3 5 6 7 7 6 6 7 7 7 6 6 6 6 6 6 5 6 7 7 7 8
6 5 4 3 3 3 3 3 3 3 3 3 3 3 3 2 6 7 6 3 4 5 6 6 7 6 6 7 7 8 7 7 6 6 6 7 7 7 7 7 8 8 9
5 5 4 4 3 3 3 3 3 3 3 3 3 3 4 3 5 7 6 5 5 6 5 5 6 6 7 8 7 8 9 8 8 8 8 8 7 7 8 7 6 8 9
5 5 4 3 3 3 3 3 3 3 3 3 3 3 3 3 3 7 8 6 6 5 6 6 5 7 7 8 8 8 8 8 9 9 9 9 8 8 8 7 7 7 8
5 5 3 3 3 4 4 4 3 3 4 3 3 3 3 3 5 7 8 8 7 6 6 6 5 8 8 9 8 8 9 9 9 10 10 9 9 8 8 8 6 6 5
3 3 3 3 3 4 5 4 4 4 4 4 4 4 4 4 4 7 8 8 7 7 6 6 8 8 9 8 9 8 8 9 10 11 11 10 9 7 7 8 6 5 3
3 3 3 3 4 4 5 4 4 4 4 4 4 5 5 5 5 5 6 6 7 7 7 7 8 8 9 8 8 8 9 9 10 10 11 10 9 8 8 8 8 7 5
3 3 3 3 4 4 4 4 4 3 5 4 4 5 5 6 6 8 8 8 8 9 10 9 9 9 9 9 9 9 9 10 10 10 10 10 10 9 9 8 8 7 7
3 4 4 4 4 4 4 4 8 9 9 9 10 8 5 8 9 10 10 10 12 12 11 11 10 10 10 10 10 10 10 10 10 10 10 10 11 10 9 9 8 8 7
3 3 4 5 5 4 5 4 5 5 9 9 9 9 9 10 10 10 10 13 13 12 10 10 11 11 10 10 10 10 11 10 10 11 11 11 11 10 10 9 9 8 8
3 9 5 5 4 4 5 4 4 4 5 5 7 7 8 10 10 11 13 12 11 11 10 11 10 10 10 10 10 10 11 11 11 11 11 11 10 10 10 9 9 8 8
4 5 4 4 4 6 5 4 4 4 5 5 5 7 8 9 10 11 12 11 12 12 11 11 10 11 11 10 10 10 12 11 11 11 11 11 10 10 10 9 9 11 10
5 9 8 4 5 5 5 4 4 5 5 6 6 7 7 8 9 12 11 12 12 12 11 11 10 10 10 11 11 12 12 11 11 10 10 11 11 10 10 9 8 8 6
4 4 11 5 5 5 4 4 5 5 6 6 6 7 13 10 12 12 13 13 13 12 11 11 11 11 11 11 12 13 12 12 11 11 11 11 11 10 9 8 8 7 6
5 5 5 5 5 5 5 5 6 6 6 6 7 8 12 10 12 13 13 13 13 12 10 11 12 12 12 13 12 13 13 12 12 11 11 11 10 9 8 8 8 6 5
5 5 5 5 5 7 6 6 6 6 6 6 8 9 9 12 13 13 13 13 13 11 10 10 12 12 11 11 11 12 12 12 11 11 10 10 9 8 8 8 7 6 5
5 5 5 5 6 6 7 6 6 8 7 8 9 9 10 13 13 13 14 13 12 11 10 10 11 10 10 9 9 10 10 10 10 9 9 8 8 8 7 7 6 5 5
5 5 5 6 6 7 7 6 6 6 7 8 9 10 12 13 13 14 14 13 12 11 10 10 10 10 9 10 11 11 12 13 10 11 8 8 8 8 7 6 4 5 5
5 6 6 6 7 7 6 6 6 7 7 9 9 10 13 13 14 14 14 14 12 11 10 10 10 10 10 11 11 12 12 12 11 12 8 8 8 7 6 5 4 5 5